VINASAT-1

Last updated on Oct. 1, 2020, 5:42 a.m. UTC

1 32767U 08018A   20274.88681135 -.00000342  00000-0  00000+0 0  9996
2 32767   0.0213 278.0399 0002012 284.9983 258.2480  1.00270784 45680
UTC
Height (km)
Latitude
Longitude
Inclination
Orbital Period
UTC large
Height (km)
Speed (km/s)
/
Latitude / Longitude
Inclination (degrees)
Orbital Period (minutes)
Azimuth
Elevation
Range (km)
Doppler Factor
iOS Compass Heading
iOS Angle

Next 30 passes for location: Hong Kong

Rise time Rise Azimuth (degrees) Set time Set Azimuth (degrees) Duration Max altitude (degrees)

No matching passes for this satellites